Bonaire, Netherlands

2:25 AM AST on September 25, 2017 (GMT -0400)
Flamingo

Weather History for TNCB - March, 2014

Change the Weather History Date:

Sunday, March 2, 2014

  Actual Average Record
Temperature  
Mean Temperature 80 °F -  
Max Temperature 84 °F 85 °F 87 °F (2003)
Min Temperature 75 °F 77 °F 73 °F (2011)
Cooling Degree Days 14    
Growing Degree Days 30 (Base 50)    
Moisture  
Dew Point 73 °F    
Average Humidity 81    
Maximum Humidity 94    
Minimum Humidity 66    
Precipitation  
Precipitation 0.00 in - - ()
Sea Level Pressure  
Sea Level Pressure 29.89 in    
Wind  
Wind Speed 9 mph ()    
Max Wind Speed 18 mph    
Max Gust Speed -    
Visibility 6.2 miles    
Events      
Averages and records for this station are not official NWS values.
T = Trace of Precipitation, MM = Missing Value Source: Averaged Metar Reports

Daily Weather History Graph

Daily Weather History Graph

Search for Another Location

Airport or City:

Trip Planner

Search our weather history database for the weather conditions in past years. The results will help you decide how hot, cold, wet, or windy it might be!

Date:

Astronomy

Mar. 02, 2014 Rise Set
Actual Time 6:48 AM AST 6:42 PM AST
Civil Twilight 6:26 AM AST 7:03 PM AST
Nautical Twilight 6:02 AM AST 7:28 PM AST
Astronomical Twilight 5:37 AM AST 7:53 PM AST
Moon 7:37 AM AST (3/2) 8:07 PM AST (3/2)
Length of Visible Light 12h 37m
Length of Day
11h 54m
New Moon, 2% of the Moon is Illuminated
Mar 2
New Moon
Mar 8
First Quarter
Mar 16
Full
Mar 23
Last Quarter
Mar 30
New

Hourly Weather History & Observations

Time (AST) Temp. Heat Index Dew Point Humidity Pressure Visibility Wind Dir Wind Speed Gust Speed Precip Events Conditions
12:00 AM 77.0 °F - 73.4 °F 89% 29.92 in - ENE 9.2 mph - N/A   Unknown
2:00 AM 77.0 °F - 73.4 °F 89% 29.89 in 6.2 mi ENE 4.6 mph - N/A   Scattered Clouds
5:00 AM - - - N/A% 29.86 in - East 9.2 mph - N/A   Unknown
6:00 AM 77.0 °F - 73.4 °F 89% 29.89 in - ENE 9.2 mph - N/A   Unknown
6:55 AM 77.0 °F - 73.4 °F 89% 29.89 in 6.2 mi East 5.8 mph - N/A   Scattered Clouds
7:55 AM 75.2 °F - 73.4 °F 94% 29.92 in - NE 6.9 mph - N/A   Unknown
8:25 AM 77.0 °F - 75.2 °F 94% 29.95 in - East 8.1 mph - N/A   Unknown
9:55 AM 77.0 °F - 73.4 °F 89% 29.95 in 6.2 mi East 4.6 mph - N/A   Scattered Clouds
10:55 AM 80.6 °F 84.6 °F 71.6 °F 74% 29.95 in 6.2 mi ESE 8.1 mph - N/A   Partly Cloudy
11:55 AM 84.2 °F 90.9 °F 73.4 °F 70% 29.95 in 6.2 mi East 12.7 mph - N/A   Scattered Clouds
1:00 PM 82.4 °F 87.2 °F 71.6 °F 70% 29.92 in 6.2 mi East 13.8 mph - N/A   Scattered Clouds
2:00 PM 82.4 °F 87.2 °F 71.6 °F 70% 29.89 in - ENE 17.3 mph - N/A   Unknown
3:00 PM 84.2 °F 89.6 °F 71.6 °F 66% 29.86 in 6.2 mi East 18.4 mph - N/A   Scattered Clouds
4:00 PM 82.4 °F 88.2 °F 73.4 °F 74% 29.83 in 6.2 mi East 16.1 mph - N/A   Scattered Clouds
5:00 PM 84.2 °F 89.6 °F 71.6 °F 66% 29.83 in - ENE 16.1 mph - N/A   Unknown
6:00 PM 80.6 °F 84.6 °F 71.6 °F 74% 29.86 in - ENE 16.1 mph - N/A   Unknown
7:00 PM 78.8 °F - 73.4 °F 83% 29.86 in - East 13.8 mph - N/A   Unknown
8:00 PM 78.8 °F - 73.4 °F 83% 29.86 in 6.2 mi East 12.7 mph - N/A   Partly Cloudy
8:55 PM 78.8 °F - 73.4 °F 83% 29.89 in - ENE 11.5 mph - N/A   Unknown
9:55 PM 78.8 °F - 73.4 °F 83% 29.89 in - North 11.5 mph - N/A   Unknown
10:55 PM 78.8 °F - 71.6 °F 78% 29.89 in - ENE 11.5 mph - N/A   Unknown
11:55 PM 77.0 °F - 73.4 °F 89% 29.89 in - East 6.9 mph - N/A   Unknown